Find Starlink 32682

NORAD ID: 62196 Int'l Des: 2024-229 Owner: SPXS Country: US Constellation: starlink operational
LEOCIRCULAR

現在のビュー

3D地球を読み込み中...

About Starlink 32682

Starlink 32682 (NORAD 62196) is a starlink constellation satellite (v2 mini) launched Dec 4, 2024 by SPXS of US. It operates in LEO, CIRCULAR orbit with a mass of 730.00 kg.

次回通過

Passes for default location (London). Set your location on the main map for personalized predictions.

高度履歴

Loading altitude history...

軌道要素

1 62196U 24229E 26263.92898139 .00009973 00000-0 37130-3 0 9996
2 62196 43.0013 215.4350 0001080 242.2025 117.8717 15.27593300100797
Epoch: Sep 20, 2026 • Age: 7 hours

現在のステータス

高度 490.8 km
遠地点 / 近地点 N/A
速度 7.62 km/s
衛星直下点 -31.24°S, 9.65°W
打ち上げ日 Dec 4, 2024
運用期間 1.7 years
タイプ internet

技術仕様

分類 Payload
質量 730.00 kg
乾燥質量 700.00 kg
長さ 0.30 m
スパン 29.00 m
形状 ? Box + pan
製造者 SPXS
バスタイプ Starlink V2M
フェーズステータス In Orbit
所有者/国 SPXS/US

Most Searched